Location: *
(44.3683°N, 6.6958°E)
Time: 03:07:33
(UTC+00:00)

STARLINK-61 - Pass Details

Date: 14 October 2019
Orbit: 530 x 533 km, 53.0° (Epoch: 15 November)

Event Time Altitude Azimuth Distance (km) Brightness Sun altitude
Rises 17:40:53 0° 245° (WSW) 2,665 8.5 -9.6°
Reaches altitude 10° 17:43:07 10° 249° (WSW) 1,779 7.5 -10.0°
Maximum altitude 17:47:07 61° 330° (NNW) 608 4.0 -10.7°
Enters shadow 17:51:01 11° 52° (NE) 1,738 5.7 -11.4°
